Elsenborn, Belgium

12:48 PM CEST on May 24, 2018 (GMT +0200)
Elsenborn

Weather History for EBLB - May, 2014

Change the Weather History Date:

Sunday, May 11, 2014

  Actual Average Record
Temperature  
Mean Temperature 45 °F -  
Max Temperature 50 °F 56 °F 80 °F (1998)
Min Temperature 40 °F 44 °F 32 °F (2017)
Degree Days  
Heating Degree Days 20    
Moisture  
Dew Point 39 °F    
Average Humidity 81    
Maximum Humidity 100    
Minimum Humidity 51    
Precipitation  
Precipitation 0.12 in - - ()
Sea Level Pressure  
Sea Level Pressure 29.70 in    
Wind  
Wind Speed 14 mph ()    
Max Wind Speed 21 mph    
Max Gust Speed 40 mph    
Visibility 8.6 miles    
Events Rain    
Averages and records for this station are not official NWS values.
T = Trace of Precipitation, MM = Missing Value Source: Averaged Metar Reports

Daily Weather History Graph

Daily Weather History Graph

Search for Another Location

Airport or City:

Astronomy

May. 11, 2014 Rise Set
Actual Time 5:53 AM CEST 9:10 PM CEST
Civil Twilight 5:14 AM CEST 9:49 PM CEST
Nautical Twilight 4:23 AM CEST 10:41 PM CEST
Astronomical Twilight 3:15 AM CEST 11:51 PM CEST
Moon 5:29 PM CEST (5/11) 4:14 AM CEST (5/11)
Length of Visible Light 16h 35m
Length of Day
15h 16m
Waxing Gibbous, 87% of the Moon is Illuminated
May 11
Waxing Gibbous
May 14
Full
May 21
Last Quarter
May 28
New
Jun 5
First Quarter

Hourly Weather History & Observations

Time (CEST) Temp. Windchill Dew Point Humidity Pressure Visibility Wind Dir Wind Speed Gust Speed Precip Events Conditions
12:00 AM 45 °F - 42 °F 85% 29.74 in 15 mi West 15.7 mph - -   Scattered Clouds
12:10 AM 44.6 °F 38.1 °F 42.8 °F 93% 29.71 in 6.2 mi West 13.8 mph - N/A   Mostly Cloudy
12:25 AM 44.6 °F 37.8 °F 42.8 °F 93% 29.71 in 6.2 mi West 15.0 mph 27.6 mph N/A   Mostly Cloudy
1:00 AM 44 °F - 41 °F 87% 29.74 in 14 mi WSW 11.2 mph - -   Scattered Clouds
1:03 AM 44.6 °F 38.4 °F 41.0 °F 87% 29.71 in 6.2 mi WSW 12.7 mph - N/A   Mostly Cloudy
1:21 AM 42.8 °F 35.4 °F 41.0 °F 93% 29.71 in 6.2 mi WSW 15.0 mph - N/A   Mostly Cloudy
1:25 AM 42.8 °F 35.4 °F 41.0 °F 93% 29.71 in 6.2 mi WSW 15.0 mph - N/A   Mostly Cloudy
2:00 AM 43 °F - 41 °F 88% 29.74 in 11 mi West 17.9 mph - -   Clear
2:25 AM 42.8 °F 35.4 °F 41.0 °F 93% 29.68 in 6.2 mi WSW 15.0 mph 26.5 mph N/A   Mostly Cloudy
3:00 AM 43 °F - 40 °F 87% 29.73 in 11 mi WSW 15.7 mph - -   Scattered Clouds
3:21 AM 42.8 °F 35.4 °F 41.0 °F 93% 29.68 in 6.2 mi WSW 15.0 mph - N/A   Mostly Cloudy
3:25 AM 42.8 °F 35.4 °F 41.0 °F 93% 29.68 in 6.2 mi WSW 15.0 mph - N/A   Mostly Cloudy
3:52 AM 42.8 °F 34.5 °F 39.2 °F 87% 29.68 in 6.2 mi WSW 18.4 mph 35.7 mph N/A   Mostly Cloudy
4:00 AM 43 °F - 40 °F 84% 29.72 in 13 mi WSW 17.9 mph - -   Scattered Clouds
4:03 AM 42.8 °F 34.8 °F 39.2 °F 87% 29.68 in 6.2 mi WSW 17.3 mph - N/A   Mostly Cloudy
4:25 AM 42.8 °F 34.0 °F 39.2 °F 87% 29.68 in 6.2 mi West 20.7 mph 34.5 mph N/A   Mostly Cloudy
5:00 AM 42 °F - 38 °F 83% 29.71 in 16 mi WSW 17.9 mph - -   Scattered Clouds
5:12 AM 42.8 °F 35.8 °F 39.2 °F 87% 29.65 in 6.2 mi WSW 13.8 mph - N/A   Mostly Cloudy
5:25 AM 41.0 °F 32.8 °F 39.2 °F 93% 29.65 in 6.2 mi WSW 16.1 mph - N/A   Mostly Cloudy
6:00 AM 42 °F - 39 °F 86% 29.70 in 13 mi WSW 17.9 mph - -   Scattered Clouds
6:25 AM 42.8 °F 34.5 °F 39.2 °F 87% 29.65 in 6.2 mi WSW 18.4 mph 31.1 mph N/A   Mostly Cloudy
6:42 AM 42.8 °F 35.4 °F 39.2 °F 87% 29.65 in 6.2 mi WSW 15.0 mph - N/A   Mostly Cloudy
7:00 AM 42 °F - 39 °F 85% 29.71 in 17 mi WSW 13.4 mph - -   Scattered Clouds
7:25 AM 41.0 °F 33.1 °F 39.2 °F 93% 29.65 in 5.0 mi WSW 15.0 mph - N/A   Mostly Cloudy
7:47 AM 41.0 °F 32.8 °F 39.2 °F 93% 29.68 in - WSW 16.1 mph - N/A   Mostly Cloudy
8:00 AM 40 °F - 38 °F 91% 29.73 in 6 mi West 13.4 mph - -   Clear
8:03 AM 41.0 °F 33.1 °F 39.2 °F 93% 29.68 in 6.2 mi West 15.0 mph 27.6 mph N/A   Mostly Cloudy
8:07 AM 41.0 °F 33.1 °F 39.2 °F 93% 29.68 in - West 15.0 mph 27.6 mph N/A   Mostly Cloudy
8:25 AM 41.0 °F 33.1 °F 39.2 °F 93% 29.68 in 6.2 mi WSW 15.0 mph - N/A   Scattered Clouds
8:43 AM 42.8 °F 35.1 °F 41.0 °F 93% 29.68 in 6.2 mi WSW 16.1 mph 27.6 mph N/A   Scattered Clouds
9:00 AM 43 °F - 40 °F 84% 29.71 in 18 mi WSW 15.7 mph - -   Clear
9:25 AM 44.6 °F 37.8 °F 39.2 °F 81% 29.68 in 6.2 mi WSW 15.0 mph - N/A   Mostly Cloudy
9:43 AM 44.6 °F 37.8 °F 39.2 °F 81% 29.68 in 6.2 mi WSW 15.0 mph - N/A   Mostly Cloudy
10:00 AM 45 °F - 39 °F 71% 29.71 in 19 mi WSW 15.7 mph - -   Scattered Clouds
10:03 AM 44.6 °F 37.2 °F 37.4 °F 76% 29.68 in 6.2 mi WSW 17.3 mph - N/A   Mostly Cloudy
10:25 AM 44.6 °F 37.4 °F 39.2 °F 81% 29.68 in 6.2 mi WSW 16.1 mph 28.8 mph N/A   Mostly Cloudy
10:33 AM 46.4 °F 40.4 °F 39.2 °F 76% 29.68 in 6.2 mi WSW 13.8 mph - N/A   Mostly Cloudy
10:57 AM 44.6 °F 37.4 °F 39.2 °F 81% 29.68 in - WSW 16.1 mph - N/A   Mostly Cloudy
11:00 AM 44 °F - 38 °F 74% 29.71 in 2 mi WSW 15.7 mph - - Rain Drizzle
11:04 AM 42.8 °F 34.8 °F 39.2 °F 87% 29.68 in 1.9 mi WSW 17.3 mph - N/A   Mostly Cloudy
11:15 AM 42.8 °F 35.4 °F 41.0 °F 93% 29.68 in 6.2 mi WSW 15.0 mph - N/A   Mostly Cloudy
11:25 AM 42.8 °F 36.2 °F 41.0 °F 93% 29.68 in - WSW 12.7 mph 24.2 mph N/A   Mostly Cloudy
11:38 AM 41.0 °F 32.8 °F 41.0 °F 100% 29.68 in - WSW 16.1 mph - N/A   Mostly Cloudy
11:49 AM 44.6 °F 37.8 °F 42.8 °F 93% 29.68 in 6.2 mi WSW 15.0 mph 26.5 mph N/A   Mostly Cloudy
12:00 PM 45 °F - 43 °F 88% 29.70 in 14 mi WSW 15.7 mph - -   Clear
12:04 PM 44.6 °F 37.4 °F 42.8 °F 93% 29.68 in 6.2 mi WSW 16.1 mph - N/A   Mostly Cloudy
12:25 PM 44.6 °F 38.4 °F 41.0 °F 87% 29.65 in 6.2 mi West 12.7 mph - N/A   Mostly Cloudy
12:54 PM 44.6 °F 37.4 °F 41.0 °F 87% 29.68 in - WSW 16.1 mph 27.6 mph N/A   Mostly Cloudy
1:00 PM 45 °F - 44 °F 92% 29.71 in 9 mi WSW 15.7 mph - - Rain Light Rain
1:05 PM 46.4 °F 40.4 °F 42.8 °F 87% 29.68 in 6.2 mi WSW 13.8 mph - N/A   Mostly Cloudy
1:25 PM 48.2 °F - 42.8 °F 82% 29.68 in 6.2 mi WSW 17.3 mph - N/A   Mostly Cloudy
1:33 PM 48.2 °F - 41.0 °F 76% 29.68 in 6.2 mi WSW 19.6 mph 40.3 mph N/A   Mostly Cloudy
2:00 PM 47 °F - 40 °F 71% 29.69 in 5 mi West 8.9 mph - - Rain Light Drizzle
2:25 PM 46.4 °F 39.8 °F 41.0 °F 81% 29.68 in 6.2 mi WSW 16.1 mph - N/A   Mostly Cloudy
2:49 PM 46.4 °F 39.5 °F 39.2 °F 76% 29.68 in 6.2 mi West 17.3 mph - N/A   Mostly Cloudy
3:00 PM 46 °F - 40 °F 73% 29.71 in 28 mi West 17.9 mph - -   Clear
3:05 PM 44.6 °F 38.1 °F 37.4 °F 76% 29.68 in 6.2 mi West 13.8 mph 26.5 mph N/A   Mostly Cloudy
3:25 PM 50.0 °F - 39.2 °F 66% 29.68 in 6.2 mi West 13.8 mph 25.3 mph N/A   Scattered Clouds
4:00 PM 50 °F - 38 °F 52% 29.68 in 19 mi West 17.9 mph - -   Scattered Clouds
4:25 PM 50.0 °F - 39.2 °F 66% 29.68 in 6.2 mi West 15.0 mph 27.6 mph N/A   Mostly Cloudy
4:47 PM 48.2 °F - 39.2 °F 71% 29.68 in 4.3 mi West 15.0 mph - N/A   Mostly Cloudy
5:00 PM 49 °F - 42 °F 70% 29.70 in 14 mi WSW 13.4 mph - -   Clear
5:03 PM 48.2 °F - 39.2 °F 71% 29.68 in 6.2 mi WSW 13.8 mph - N/A   Mostly Cloudy
5:25 PM 48.2 °F - 37.4 °F 66% 29.68 in 6.2 mi West 13.8 mph - N/A   Mostly Cloudy
6:00 PM 48 °F - 35 °F 51% 29.72 in 19 mi West 13.4 mph - -   Partly Cloudy
6:25 PM 48.2 °F - 35.6 °F 62% 29.71 in 6.2 mi West 18.4 mph 32.2 mph N/A   Overcast
7:00 PM 47 °F - 36 °F 57% 29.74 in 17 mi West 13.4 mph - -   Scattered Clouds
7:25 PM 46.4 °F 40.1 °F 37.4 °F 71% 29.71 in 6.2 mi West 15.0 mph - N/A   Overcast
8:00 PM 46 °F - 37 °F 60% 29.75 in 19 mi West 13.4 mph - -   Clear
8:25 PM 46.4 °F 40.4 °F 37.4 °F 71% 29.71 in 6.2 mi West 13.8 mph - N/A   Overcast
9:00 PM 46 °F - 36 °F 59% 29.77 in 19 mi West 11.2 mph - -   Partly Cloudy
9:25 PM 46.4 °F 40.7 °F 35.6 °F 66% 29.74 in 6.2 mi West 12.7 mph - N/A   Overcast
10:00 PM 45 °F - 35 °F 59% 29.79 in 19 mi WSW 8.9 mph - -   Overcast
10:25 PM 44.6 °F 38.4 °F 35.6 °F 71% 29.77 in 6.2 mi WSW 12.7 mph - N/A   Overcast
11:00 PM 44 °F - 36 °F 64% 29.81 in 22 mi WSW 11.2 mph - -   Mostly Cloudy
11:25 PM 42.8 °F 37.0 °F 37.4 °F 81% 29.77 in 6.2 mi WSW 10.4 mph - N/A   Partly Cloudy